Regional Weather Roundup
Issued by NWS

Home | Current Version | Previous Version | Text Only | Print | Product List | Glossary On
Versions: 1 2 3 4 5 6 7 8 9 10 11 12 13 14 15 16 17 18 19 20 21 22 23 24 25 26 27
000
ASUS44 KBMX 161310
RWRAL

ALABAMA REGIONAL WEATHER ROUNDUP
NATIONAL WEATHER SERVICE BIRMINGHAM AL
800 AM CDT WED APR 16 2014

NOTE: "FAIR" INDICATES FEW OR NO CLOUDS BELOW 12,000 FEET
WITH NO SIGNIFICANT WEATHER AND/OR OBSTRUCTIONS TO VISIBILITY.

THE REMARK "TC" DENOTES TEMPERATURE IN DEGREES CELSIUS.

ALZ001>011-014-016>018-020-161400-
NORTH ALABAMA

CITY           SKY/WX    TMP DP  RH WIND       PRES   REMARKS
MUSCLE SHOALS  SUNNY     40  25  55 E8        30.31R WCI  34
HUNTSVILLE     MOSUNNY   39  25  57 NE6       30.28R WCI  35
DECATUR        SUNNY     37  25  61 NE5       30.29R WCI  33
HALEYVILLE     FAIR      36  25  65 VRB7      30.29R WCI  30
GADSDEN        NOT AVBL
$$

ALZ012-013-022-023-030>036-040>044-161400-
WEST CENTRAL ALABAMA

CITY           SKY/WX    TMP DP  RH WIND       PRES   REMARKS
TUSCALOOSA     SUNNY     39  29  67 N6        30.28R WCI  35
$$

ALZ015-024>027-033>036-040>044-161400-
CENTRAL ALABAMA

CITY           SKY/WX    TMP DP  RH WIND       PRES   REMARKS
BIRMINGHAM     SUNNY     40  24  53 NE8       30.26R WCI  34
MONTGOMERY     SUNNY     41  29  62 NE9       30.25R
SHELBY CO ARPT SUNNY     41  26  55 VRB6      30.23S
MAXWELL AFB    SUNNY     45  34  66 NE9       30.25R
GREENVILLE     FAIR      41  29  62 NE14G20   30.21R
$$

ALZ019-021-028-029-037-038-045>048-161400-
EAST CENTRAL ALABAMA

CITY           SKY/WX    TMP DP  RH WIND       PRES   REMARKS
ANNISTON       SUNNY     39  26  59 E12       30.24S WCI  32
ALEXANDER CITY SUNNY     42  26  52 E3        30.23R
AUBURN         SUNNY     37  25  60 NE9G20    30.24S WCI  31
$$

ALZ051>064-161400-
SOUTHWEST ALABAMA

CITY           SKY/WX    TMP DP  RH WIND       PRES   REMARKS
MOBILE         SUNNY     43  33  68 NE7       30.24R
BROOKLEY FIELD SUNNY     45  32  60 NE13      30.25R
EVERGREEN      SUNNY     42  30  62 N13G18    30.22S
$$

ALZ049-050-065>069-161400-
SOUTHEAST ALABAMA

CITY           SKY/WX    TMP DP  RH WIND       PRES   REMARKS
DOTHAN         SUNNY     42  30  62 NE13G22   30.23R
OZARK          SUNNY     41  31  68 NE13G20   30.20R
TROY           SUNNY     41  30  65 NE8       30.22S
EUFAULA        FAIR      42  31  64 NE12G17   30.23R
$$



USA.gov is the U.S. government's official web portal to all federal, state and local government web resources and services.